Year,Month,Day,Hour,Minute,Value (Times are PST for temperature in C)
2009,08,19,09,53,22.60
2009,08,19,09,54,22.60
2009,08,19,09,55,22.70
2009,08,19,09,56,22.70
2009,08,19,09,57,22.70
2009,08,19,09,58,22.80
2009,08,19,09,59,22.80
2009,08,19,10,00,22.90
2009,08,19,10,01,23.00
2009,08,19,10,02,23.00
2009,08,19,10,03,23.10
2009,08,19,10,04,23.20
2009,08,19,10,05,23.20
2009,08,19,10,06,23.30
2009,08,19,10,07,23.30
2009,08,19,10,08,23.30
2009,08,19,10,09,23.30
2009,08,19,10,10,23.30
2009,08,19,10,11,23.40
2009,08,19,10,12,23.40
2009,08,19,10,13,23.50
2009,08,19,10,14,23.60
2009,08,19,10,15,23.70
2009,08,19,10,16,23.80
2009,08,19,10,17,23.80
2009,08,19,10,18,23.80
2009,08,19,10,19,23.90
2009,08,19,10,20,24.00
2009,08,19,10,21,24.10
2009,08,19,10,22,24.20
2009,08,19,10,23,24.20
2009,08,19,10,24,24.20
2009,08,19,10,25,24.20
2009,08,19,10,26,24.30
2009,08,19,10,27,24.30
2009,08,19,10,28,24.20
2009,08,19,10,29,24.20
2009,08,19,10,30,24.10
2009,08,19,10,31,24.10
2009,08,19,10,32,24.20
2009,08,19,10,33,24.30
2009,08,19,10,34,24.40
2009,08,19,10,35,24.40
2009,08,19,10,36,24.40
2009,08,19,10,37,24.30
2009,08,19,10,38,24.30
2009,08,19,10,39,24.10
2009,08,19,10,40,24.00
2009,08,19,10,41,24.00
2009,08,19,10,42,23.80
2009,08,19,10,43,23.80
2009,08,19,10,44,23.70
2009,08,19,10,45,23.70
2009,08,19,10,46,23.60
2009,08,19,10,47,23.50
2009,08,19,10,48,23.40
2009,08,19,10,49,23.30
2009,08,19,10,50,23.20
2009,08,19,10,51,23.10
2009,08,19,10,52,23.10
2009,08,19,10,53,23.10
2009,08,19,10,54,23.20
2009,08,19,10,55,23.20
2009,08,19,10,56,23.30
2009,08,19,10,57,23.40
2009,08,19,10,58,23.50
2009,08,19,10,59,23.60
2009,08,19,11,00,23.70
2009,08,19,11,01,23.80
2009,08,19,11,02,23.80
2009,08,19,11,03,23.70
2009,08,19,11,04,23.70
2009,08,19,11,05,23.60
2009,08,19,11,06,23.50
2009,08,19,11,07,23.50
2009,08,19,11,08,23.40
2009,08,19,11,09,23.40
2009,08,19,11,10,23.30
2009,08,19,11,11,23.30
2009,08,19,11,12,23.30
2009,08,19,11,13,23.30
2009,08,19,11,14,23.30
2009,08,19,11,15,23.40
2009,08,19,11,16,23.50
2009,08,19,11,17,23.50
2009,08,19,11,18,23.60
2009,08,19,11,19,23.80
2009,08,19,11,20,23.90
2009,08,19,11,21,24.00
2009,08,19,11,22,24.10
2009,08,19,11,23,24.20
2009,08,19,11,24,24.20
2009,08,19,11,25,24.20
2009,08,19,11,26,24.20
2009,08,19,11,27,24.20
2009,08,19,11,28,24.30
2009,08,19,11,29,24.30
2009,08,19,11,30,24.30
2009,08,19,11,31,24.40
2009,08,19,11,32,24.40
2009,08,19,11,33,24.50
2009,08,19,11,34,24.60
2009,08,19,11,35,24.60
2009,08,19,11,36,24.60
2009,08,19,11,37,24.60
2009,08,19,11,38,24.50
2009,08,19,11,39,24.40
2009,08,19,11,40,24.20
2009,08,19,11,41,24.20
2009,08,19,11,42,24.20
2009,08,19,11,43,24.20
2009,08,19,11,44,24.20
2009,08,19,11,45,24.30
2009,08,19,11,46,24.40
2009,08,19,11,47,24.50
2009,08,19,11,48,24.60
2009,08,19,11,49,24.60
2009,08,19,11,50,24.70
2009,08,19,11,51,24.80
2009,08,19,11,52,24.80
2009,08,19,11,53,24.80
2009,08,19,11,54,24.90
2009,08,19,11,55,24.90
2009,08,19,11,56,24.90
2009,08,19,11,57,24.90
2009,08,19,11,58,25.00
2009,08,19,11,59,25.10
2009,08,19,12,00,25.20
2009,08,19,12,01,25.30
2009,08,19,12,02,25.30
2009,08,19,12,03,25.40
2009,08,19,12,04,25.50
2009,08,19,12,05,25.50
2009,08,19,12,06,25.60
2009,08,19,12,07,25.60
2009,08,19,12,08,25.60
2009,08,19,12,09,25.60
2009,08,19,12,10,25.50
2009,08,19,12,11,25.50
2009,08,19,12,12,25.40
2009,08,19,12,13,25.40
2009,08,19,12,14,25.40
2009,08,19,12,15,25.40
2009,08,19,12,16,25.40
2009,08,19,12,17,25.40
2009,08,19,12,18,25.40
2009,08,19,12,19,25.40
2009,08,19,12,20,25.30
2009,08,19,12,21,25.30
2009,08,19,12,22,25.30
2009,08,19,12,23,25.30
2009,08,19,12,24,25.30
2009,08,19,12,25,25.30
2009,08,19,12,26,25.40
2009,08,19,12,27,25.40
2009,08,19,12,28,25.40
2009,08,19,12,29,25.50
2009,08,19,12,30,25.50
2009,08,19,12,31,25.50
2009,08,19,12,32,25.60
2009,08,19,12,33,25.60
2009,08,19,12,34,25.50
2009,08,19,12,35,25.50
2009,08,19,12,36,25.40
2009,08,19,12,37,25.40
2009,08,19,12,38,25.30
2009,08,19,12,39,25.40
2009,08,19,12,40,25.40
2009,08,19,12,41,25.50
2009,08,19,12,42,25.50
2009,08,19,12,43,25.50
2009,08,19,12,44,25.50
2009,08,19,12,45,25.40
2009,08,19,12,46,25.40
2009,08,19,12,47,25.40
2009,08,19,12,48,25.40
2009,08,19,12,49,25.40
2009,08,19,12,50,25.30
2009,08,19,12,51,25.30
2009,08,19,12,52,25.40
2009,08,19,12,53,25.40
2009,08,19,12,54,25.40
2009,08,19,12,55,25.50
2009,08,19,12,56,25.60
2009,08,19,12,57,25.70
2009,08,19,12,58,25.80
2009,08,19,12,59,25.90
2009,08,19,13,00,25.90
2009,08,19,13,01,25.90
2009,08,19,13,02,26.00
2009,08,19,13,03,26.00
2009,08,19,13,04,25.90
2009,08,19,13,05,25.90
2009,08,19,13,06,25.90
2009,08,19,13,07,25.90
2009,08,19,13,08,25.90
2009,08,19,13,09,25.90
2009,08,19,13,10,25.90
2009,08,19,13,11,25.90
2009,08,19,13,12,25.90
2009,08,19,13,13,25.90
2009,08,19,13,14,25.90
2009,08,19,13,15,25.90
2009,08,19,13,16,26.00
2009,08,19,13,17,26.10
2009,08,19,13,18,26.10
2009,08,19,13,19,26.20
2009,08,19,13,20,26.20
2009,08,19,13,21,26.20
2009,08,19,13,22,26.20
2009,08,19,13,23,26.20
2009,08,19,13,24,26.20
2009,08,19,13,25,26.20
2009,08,19,13,26,26.20
2009,08,19,13,27,26.20
2009,08,19,13,28,26.30
2009,08,19,13,29,26.40
2009,08,19,13,30,26.50
2009,08,19,13,31,26.60
2009,08,19,13,32,26.70
2009,08,19,13,33,26.80
2009,08,19,13,34,26.80
2009,08,19,13,35,26.90
2009,08,19,13,36,27.00
2009,08,19,13,37,27.10
2009,08,19,13,38,27.20
2009,08,19,13,39,27.30
2009,08,19,13,40,27.40
2009,08,19,13,41,27.50
2009,08,19,13,42,27.60
2009,08,19,13,43,27.60
2009,08,19,13,44,27.70
2009,08,19,13,45,27.70
2009,08,19,13,46,27.80
2009,08,19,13,47,27.80
2009,08,19,13,48,27.70
2009,08,19,13,49,27.70
2009,08,19,13,50,27.80
2009,08,19,13,51,27.80
2009,08,19,13,52,27.80
2009,08,19,13,53,27.80
2009,08,19,13,54,27.90
2009,08,19,13,55,27.90
2009,08,19,13,56,27.90
2009,08,19,13,57,28.00
2009,08,19,13,58,28.00
2009,08,19,13,59,28.00
2009,08,19,14,00,27.90
2009,08,19,14,01,27.80
2009,08,19,14,02,27.80
2009,08,19,14,03,27.80
2009,08,19,14,04,27.80
2009,08,19,14,05,27.80
2009,08,19,14,06,27.70
2009,08,19,14,07,27.60
2009,08,19,14,08,27.60
2009,08,19,14,09,27.40
2009,08,19,14,10,27.40
2009,08,19,14,11,27.30
2009,08,19,14,12,27.30
2009,08,19,14,13,27.20
2009,08,19,14,14,27.10
2009,08,19,14,15,27.10
2009,08,19,14,16,27.10
2009,08,19,14,17,27.10
2009,08,19,14,18,27.10
2009,08,19,14,19,27.10
2009,08,19,14,20,27.10
2009,08,19,14,21,27.10
2009,08,19,14,22,27.20
2009,08,19,14,23,27.30
2009,08,19,14,24,27.30
2009,08,19,14,25,27.30
2009,08,19,14,26,27.30
2009,08,19,14,27,27.30
2009,08,19,14,28,27.30
2009,08,19,14,29,27.40
2009,08,19,14,30,27.50
2009,08,19,14,31,27.60
2009,08,19,14,32,27.70
2009,08,19,14,33,27.60
2009,08,19,14,34,27.60
2009,08,19,14,35,27.60
2009,08,19,14,36,27.70
2009,08,19,14,37,27.70
2009,08,19,14,38,27.70
2009,08,19,14,39,27.60
2009,08,19,14,40,27.60
2009,08,19,14,41,27.50
2009,08,19,14,42,27.40
2009,08,19,14,43,27.40
2009,08,19,14,44,27.20
2009,08,19,14,45,27.10
2009,08,19,14,46,27.10
2009,08,19,14,47,27.00
2009,08,19,14,48,27.00
2009,08,19,14,49,27.00
2009,08,19,14,50,26.90
2009,08,19,14,51,26.90
2009,08,19,14,52,26.80
2009,08,19,14,53,26.80
2009,08,19,14,54,26.80
2009,08,19,14,55,26.80
2009,08,19,14,56,26.80
2009,08,19,14,57,26.90
2009,08,19,14,58,26.80
2009,08,19,14,59,26.80
2009,08,19,15,00,26.80
2009,08,19,15,01,26.70
2009,08,19,15,02,26.60
2009,08,19,15,03,26.50
2009,08,19,15,04,26.40
2009,08,19,15,05,26.40
2009,08,19,15,06,26.30
2009,08,19,15,07,26.30
2009,08,19,15,08,26.40
2009,08,19,15,09,26.40
2009,08,19,15,10,26.50
2009,08,19,15,11,26.60
2009,08,19,15,12,26.70
2009,08,19,15,13,26.80
2009,08,19,15,14,26.80
2009,08,19,15,15,26.90
2009,08,19,15,16,26.90
2009,08,19,15,17,26.90
2009,08,19,15,18,26.80
2009,08,19,15,19,26.80
2009,08,19,15,20,26.80
2009,08,19,15,21,26.80
2009,08,19,15,22,26.80
2009,08,19,15,23,26.70
2009,08,19,15,24,26.60
2009,08,19,15,25,26.40
2009,08,19,15,26,26.20
2009,08,19,15,27,26.00
2009,08,19,15,28,25.90
2009,08,19,15,29,25.90
2009,08,19,15,30,25.90
2009,08,19,15,31,25.90
2009,08,19,15,32,25.80
2009,08,19,15,33,25.80
2009,08,19,15,34,25.80
2009,08,19,15,35,25.80
2009,08,19,15,36,25.90
2009,08,19,15,37,25.90
2009,08,19,15,38,25.90
2009,08,19,15,39,25.90
2009,08,19,15,40,25.90
2009,08,19,15,41,25.90
2009,08,19,15,42,26.00
2009,08,19,15,43,25.90
2009,08,19,15,44,26.00
2009,08,19,15,45,26.00
2009,08,19,15,46,26.10
2009,08,19,15,47,26.10
2009,08,19,15,48,26.20
2009,08,19,15,49,26.20
2009,08,19,15,50,26.10
2009,08,19,15,51,26.00
2009,08,19,15,52,25.90
2009,08,19,15,53,25.90
2009,08,19,15,54,25.70
2009,08,19,15,55,25.60
2009,08,19,15,56,25.60
2009,08,19,15,57,25.50
2009,08,19,15,58,25.40
2009,08,19,15,59,25.40
2009,08,19,16,00,25.30
2009,08,19,16,01,25.30
2009,08,19,16,02,25.30
2009,08,19,16,03,25.20
2009,08,19,16,04,25.20
2009,08,19,16,05,25.10
2009,08,19,16,06,25.10
2009,08,19,16,07,25.00
2009,08,19,16,08,25.00
2009,08,19,16,09,25.00
2009,08,19,16,10,25.00
2009,08,19,16,11,25.10
2009,08,19,16,12,25.20
2009,08,19,16,13,25.20
2009,08,19,16,14,25.30
2009,08,19,16,15,25.40
2009,08,19,16,16,25.50
2009,08,19,16,17,25.50
2009,08,19,16,18,25.60
2009,08,19,16,19,25.60
2009,08,19,16,20,25.60
2009,08,19,16,21,25.60
2009,08,19,16,22,25.70
2009,08,19,16,23,25.80
2009,08,19,16,24,25.80
2009,08,19,16,25,25.80
2009,08,19,16,26,25.80
2009,08,19,16,27,25.80
2009,08,19,16,28,25.90
2009,08,19,16,29,25.90
2009,08,19,16,30,25.90
2009,08,19,16,31,25.90
2009,08,19,16,32,25.90
2009,08,19,16,33,25.90
2009,08,19,16,34,26.00
2009,08,19,16,35,26.00
2009,08,19,16,36,25.90
2009,08,19,16,37,26.00
2009,08,19,16,38,25.90
2009,08,19,16,39,25.90
2009,08,19,16,40,25.90
2009,08,19,16,41,25.90
2009,08,19,16,42,26.00
2009,08,19,16,43,26.00
2009,08,19,16,44,25.90
2009,08,19,16,45,25.90
2009,08,19,16,46,25.90
2009,08,19,16,47,25.90
2009,08,19,16,48,25.90
2009,08,19,16,49,25.90
2009,08,19,16,50,26.00
2009,08,19,16,51,26.00
2009,08,19,16,52,26.00
2009,08,19,16,53,25.90
2009,08,19,16,54,25.90
2009,08,19,16,55,25.90
2009,08,19,16,56,25.80
2009,08,19,16,57,25.70
2009,08,19,16,58,25.60
2009,08,19,16,59,25.50
2009,08,19,17,00,25.40
2009,08,19,17,01,25.30
2009,08,19,17,02,25.10
2009,08,19,17,03,25.00
2009,08,19,17,04,24.90
2009,08,19,17,05,24.90
2009,08,19,17,06,25.00
2009,08,19,17,09,25.20
2009,08,19,17,10,25.10
2009,08,19,17,11,25.10
2009,08,19,17,12,25.10
2009,08,19,17,13,25.10
2009,08,19,17,14,25.10
2009,08,19,17,15,25.00
2009,08,19,17,16,25.00
2009,08,19,17,17,25.00
2009,08,19,17,18,25.00
2009,08,19,17,19,25.10
2009,08,19,17,20,25.10
2009,08,19,17,21,25.20
2009,08,19,17,22,25.20
2009,08,19,17,23,25.20
2009,08,19,17,24,25.20
2009,08,19,17,25,25.30
2009,08,19,17,26,25.30
2009,08,19,17,27,25.30
2009,08,19,17,28,25.20
2009,08,19,17,29,25.10
2009,08,19,17,30,25.00
2009,08,19,17,31,24.90
2009,08,19,17,32,24.80
2009,08,19,17,33,24.80
2009,08,19,17,34,24.70
2009,08,19,17,35,24.70
2009,08,19,17,36,24.70
2009,08,19,17,37,24.70
2009,08,19,17,38,24.60
2009,08,19,17,39,24.50
2009,08,19,17,40,24.50
2009,08,19,17,41,24.50
2009,08,19,17,42,24.50
2009,08,19,17,43,24.60
2009,08,19,17,44,24.60
2009,08,19,17,45,24.60
2009,08,19,17,46,24.60
2009,08,19,17,47,24.60
2009,08,19,17,48,24.60
2009,08,19,17,49,24.70
2009,08,19,17,50,24.70
2009,08,19,17,51,24.70
2009,08,19,17,52,24.70
2009,08,19,17,53,24.60
2009,08,19,17,54,24.50
2009,08,19,17,55,24.50
2009,08,19,17,56,24.40
2009,08,19,17,57,24.30
2009,08,19,17,58,24.30
2009,08,19,17,59,24.20
2009,08,19,18,00,24.10
2009,08,19,18,01,24.10
2009,08,19,18,02,24.00
2009,08,19,18,03,24.00
2009,08,19,18,04,24.00
2009,08,19,18,05,24.00
2009,08,19,18,06,24.00
2009,08,19,18,07,24.00
2009,08,19,18,08,23.90
2009,08,19,18,09,23.90
2009,08,19,18,10,23.90
2009,08,19,18,11,23.90
2009,08,19,18,12,23.90
2009,08,19,18,13,23.90
2009,08,19,18,14,23.90
2009,08,19,18,15,23.80
2009,08,19,18,16,23.80
2009,08,19,18,17,23.80
2009,08,19,18,18,23.80
2009,08,19,18,19,23.70
2009,08,19,18,20,23.70
2009,08,19,18,21,23.70
2009,08,19,18,22,23.70
2009,08,19,18,23,23.70
2009,08,19,18,24,23.60
2009,08,19,18,25,23.60
2009,08,19,18,26,23.60
2009,08,19,18,27,23.60
2009,08,19,18,28,23.60
2009,08,19,18,29,23.60
2009,08,19,18,30,23.70
2009,08,19,18,31,23.70
2009,08,19,18,32,23.70
2009,08,19,18,33,23.70
2009,08,19,18,34,23.70
2009,08,19,18,35,23.70
2009,08,19,18,36,23.70
2009,08,19,18,37,23.70
2009,08,19,18,38,23.70
2009,08,19,18,39,23.70
2009,08,19,18,40,23.70
